[[{"header":{"parameterUnit":"m.s-1","parameterCategory":1,"la1":30.2991,"la2":30.254,"lo1":-89.0895,"lo2":-89.0444,"dy":0.0017,"dx":0.0017,"nx":28,"ny":28,"refTime":"2024-06-04T09:00:00:Z","depth":0,"parameterNumber":2,"parameterNumberName":"U-component_of_WINDS"},"data":[0,0,0,0,0,0,0,0,0,0,0,0,0,0,0,0,0,0,0,0,0,0,0,0,0,0,0,0,0,0,0,0,0,0,0,0,0,0,0,0,0,0,0,0,0,0,0,0,0,0,0,0,0,0,0,0,0,0,-0.7165,-0.7165,0,-0.7217,-0.7217,-0.7218,-0.7211,-0.721,-0.7209,-0.7208,-0.7261,-0.7264,-0.7266,0,0,0,0,0,0,0,0,0,0,0,0,0,-0.7059,-0.7061,-0.7165,-0.7165,-0.7166,-0.7216,-0.7217,-0.7218,-0.7211,-0.721,-0.7209,-0.7208,-0.7261,-0.7263,-0.7266,0,0,0,0,0,0,0,0,0,0,0,0,0,-0.7108,-0.7062,-0.7164,-0.7168,-0.7169,-0.7216,-0.7217,-0.7218,-0.7211,-0.721,-0.7208,-0.7207,-0.726,-0.7263,-0.7266,-0.7313,0,0,-0.7276,-0.7278,0,0,0,0,0,0,0,0,-0.7105,-0.7111,-0.7167,-0.7168,-0.7169,-0.7206,-0.72,-0.725,-0.7211,-0.7195,-0.7208,-0.7206,-0.7244,-0.7248,-0.7261,-0.7315,-0.7318,-0.7277,-0.7279,-0.728,-0.7281,0,0,0,0,0,0,0,-0.7102,-0.7109,-0.7185,-0.7168,-0.7169,-0.7168,-0.7173,-0.7209,-0.7226,-0.7196,-0.7196,-0.7202,-0.7244,-0.7258,-0.7262,-0.7318,-0.7277,-0.728,-0.7282,-0.7283,-0.7413,-0.7415,0,0,0,0,0,0,-0.7097,-0.7106,-0.7183,-0.7187,-0.7133,-0.7171,-0.7177,-0.7195,-0.7226,-0.7229,-0.7203,-0.7202,-0.7253,-0.7258,-0.7264,-0.732,-0.728,-0.7283,-0.7285,-0.7412,-0.7414,-0.7415,0,0,0,0,0,0,-0.7095,-0.7104,-0.7181,-0.7146,-0.7156,-0.7174,-0.7195,-0.7197,-0.7211,-0.7231,-0.7234,-0.7214,-0.7252,-0.7259,-0.7301,-0.7322,-0.7285,-0.7288,-0.741,-0.7412,-0.7414,-0.7432,0,0,0,0,0,0,-0.7092,-0.7103,-0.7121,-0.7147,-0.7158,-0.7217,-0.7196,-0.7199,-0.7216,-0.7215,-0.7242,-0.7245,-0.7252,-0.7296,-0.7304,-0.7326,-0.729,-0.7408,-0.7411,-0.7414,-0.743,-0.7435,-0.7439,0,0,0,0,0,-0.7088,-0.7124,-0.7122,-0.7131,-0.7181,-0.7218,-0.7225,-0.7231,-0.7218,-0.7236,-0.7249,-0.7244,-0.7318,-0.73,-0.7309,-0.7332,-0.7407,-0.741,-0.7413,-0.7428,-0.7434,-0.7439,0,0,0,0,0,0,-0.71,-0.7128,-0.7125,-0.7171,-0.7192,-0.7217,-0.724,-0.7237,-0.7263,-0.726,-0.7268,-0.7274,-0.7316,-0.7328,-0.7307,-0.7379,-0.7361,-0.7366,-0.7369,-0.7375,-0.7379,-0.7375,-0.7293,0,0,0,0,0,-0.7108,-0.7136,-0.7159,-0.7197,-0.7208,-0.7222,-0.7239,-0.7242,-0.7264,-0.7273,-0.7289,-0.7311,-0.734,-0.7358,-0.7385,-0.7432,-0.7438,-0.7453,-0.7457,-0.7461,-0.7465,-0.7491,-0.7497,-0.7426,-0.7426,-0.7426,0,0,-0.7125,-0.7143,-0.7161,-0.72,-0.7217,-0.7246,-0.7229,-0.7261,-0.7282,-0.7278,-0.7318,-0.7331,-0.7356,-0.74,-0.742,-0.7412,-0.7487,-0.7465,-0.7468,-0.747,-0.7495,-0.7502,-0.7508,-0.7428,-0.7428,-0.7427,0,0,-0.717,-0.7187,-0.722,-0.7238,-0.7263,-0.7273,-0.7281,-0.7306,-0.7314,-0.7354,-0.7351,-0.7377,-0.7426,-0.7444,-0.7459,-0.7512,-0.7508,-0.7521,-0.7544,-0.7569,-0.7574,-0.7579,-0.7597,-0.7604,-0.7525,-0.7525,-0.7525,0,-0.7187,-0.7231,-0.7238,-0.7269,-0.7286,-0.7284,-0.7317,-0.7334,-0.7368,-0.7379,-0.737,-0.7431,-0.7448,-0.7496,-0.7508,-0.7521,-0.7531,-0.7517,-0.7573,-0.7578,-0.7583,-0.76,-0.7607,-0.7526,-0.7526,-0.7526,-0.7526,0,-0.725,-0.7281,-0.7304,-0.7336,-0.7356,-0.7389,-0.7401,-0.742,-0.7422,-0.7432,-0.7473,-0.7494,-0.7525,-0.7537,-0.7539,-0.7585,-0.7579,-0.7571,-0.7553,-0.7591,-0.7607,-0.7614,-0.7528,-0.7528,-0.7527,-0.7527,0,0,-0.7304,-0.7339,-0.7348,-0.7362,-0.7391,-0.7414,-0.7447,-0.7477,-0.7493,-0.7517,-0.7544,-0.7586,-0.7578,-0.7596,-0.76,-0.7622,-0.7662,-0.7612,-0.7612,-0.762,-0.7714,-0.7718,-0.7726,-0.766,-0.7661,-0.7662,-0.7711,0,-0.7351,-0.7407,-0.7415,-0.7465,-0.7493,-0.7492,-0.752,-0.7541,-0.7551,-0.7577,-0.7589,-0.7618,-0.7607,-0.7617,-0.7639,-0.7652,-0.7681,-0.7649,-0.7685,-0.7686,-0.7678,-0.7735,-0.774,-0.7785,-0.7718,-0.7719,-0.772,0,-0.7413,-0.7438,-0.7491,-0.7515,-0.7527,-0.7552,-0.758,-0.7605,-0.7628,-0.7635,-0.7655,-0.7656,-0.769,-0.7672,-0.7718,-0.7697,-0.7712,-0.7721,-0.7723,-0.7726,-0.7704,-0.7738,-0.78,-0.7806,-0.773,-0.7729,-0.7728,0,-0.7445,-0.7492,-0.753,-0.7542,-0.7572,-0.7589,-0.7603,-0.7625,-0.7643,-0.7668,-0.7679,-0.7708,-0.7724,-0.7746,-0.7756,-0.7742,-0.7802,-0.7784,-0.7808,-0.7808,-0.782,-0.7818,-0.7883,-0.7831,-0.7831,-0.7831,-0.7831,0,-0.7496,-0.7529,-0.7544,-0.7567,-0.7604,-0.7612,-0.7648,-0.7661,-0.7681,-0.7706,-0.7707,-0.7731,-0.7743,-0.7769,-0.7777,-0.7814,-0.7822,-0.7828,-0.7829,-0.7827,-0.7826,-0.7836,-0.7833,-0.7833,-0.7833,-0.7832,-0.7832,0,-0.7538,-0.755,-0.7591,-0.7616,-0.7623,-0.7648,-0.7669,-0.7692,-0.7703,-0.7735,-0.7743,-0.7761,-0.7791,-0.7803,-0.7841,-0.7847,-0.7889,-0.7889,-0.7881,-0.7881,-0.7904,-0.7901,-0.7977,-0.7987,-0.7929,-0.793,-0.793,0,-0.7569,-0.7594,-0.7621,-0.7638,-0.7652,-0.768,-0.7698,-0.7707,-0.7726,-0.7755,-0.7774,-0.7804,-0.7829,-0.7879,-0.7895,-0.7924,-0.7923,-0.7948,-0.7928,-0.7925,-0.7923,-0.7921,-0.7923,-0.7951,-0.7952,-0.7952,-0.7953,0,-0.7623,-0.7628,-0.7654,-0.7681,-0.7703,-0.7725,-0.7747,-0.7761,-0.7774,-0.7795,-0.7826,-0.7846,-0.7884,-0.7915,-0.7944,-0.7959,-0.7958,-0.7959,-0.7966,-0.7963,-0.7957,-0.796,-0.789,-0.7957,-0.7957,-0.7956,-0.7956,-0.7956,-0.7661,-0.7682,-0.7705,-0.7733,-0.775,-0.7771,-0.7793,-0.7807,-0.7833,-0.7864,-0.7869,-0.7902,-0.7925,-0.7965,-0.7981,-0.8007,-0.8001,-0.8011,-0.8013,-0.8015,-0.8016,-0.7954,-0.8013,-0.8013,-0.8013,-0.8013,-0.8012,0,-0.7714,-0.7728,-0.7754,-0.7785,-0.7807,-0.7804,-0.7828,-0.7847,-0.7877,-0.7898,-0.7923,-0.7958,-0.7988,-0.8007,-0.8036,-0.8054,-0.8055,-0.8062,-0.806,-0.8063,-0.8021,-0.8011,-0.8061,-0.8061,-0.8061,-0.8061,-0.8061,-0.8061,-0.7744,-0.7781,-0.7788,-0.7833,-0.7847,-0.7879,-0.7893,-0.7912,-0.7929,-0.7969,-0.7993,-0.8005,-0.8026,-0.8057,-0.8084,-0.8089,-0.81,-0.8107,-0.8111,-0.8071,-0.8066,-0.8061,-0.8052,-0.8109,-0.8109,-0.8151,-0.8151,-0.8152]},{"header":{"parameterUnit":"m.s-1","parameterCategory":1,"la1":30.2991,"la2":30.254,"lo1":-89.0895,"lo2":-89.0444,"dy":0.0017,"dx":0.0017,"nx":28,"ny":28,"refTime":"2024-06-04T09:00:00:Z","depth":0,"parameterNumber":3,"parameterNumberName":"V-component_of_WINDS"},"data":[0,0,0,0,0,0,0,0,0,0,0,0,0,0,0,0,0,0,0,0,0,0,0,0,0,0,0,0,0,0,0,0,0,0,0,0,0,0,0,0,0,0,0,0,0,0,0,0,0,0,0,0,0,0,0,0,0,0,3.7614,3.7614,0,3.7612,3.7612,3.7612,3.7639,3.764,3.764,3.7641,3.7637,3.7637,3.7636,0,0,0,0,0,0,0,0,0,0,0,0,0,3.7639,3.7638,3.7614,3.7614,3.7614,3.7612,3.7612,3.7612,3.7639,3.764,3.7641,3.7641,3.7638,3.7637,3.7636,0,0,0,0,0,0,0,0,0,0,0,0,0,3.7632,3.7638,3.7614,3.7627,3.7629,3.7612,3.7612,3.7612,3.7639,3.764,3.7641,3.7642,3.7638,3.7637,3.7636,3.7606,0,0,3.7632,3.7632,0,0,0,0,0,0,0,0,3.7632,3.7631,3.7626,3.7626,3.7628,3.7627,3.762,3.761,3.7638,3.7635,3.7641,3.7642,3.7633,3.7632,3.7629,3.7606,3.7606,3.7632,3.7631,3.7631,3.763,0,0,0,0,0,0,0,3.7632,3.7631,3.7614,3.7625,3.7627,3.7632,3.7633,3.7618,3.7628,3.7635,3.7637,3.7637,3.7634,3.763,3.7629,3.7606,3.7632,3.7631,3.763,3.763,3.7557,3.7556,0,0,0,0,0,0,3.7631,3.7631,3.7614,3.7614,3.7633,3.7631,3.7631,3.7626,3.7628,3.7629,3.7636,3.7638,3.7632,3.7631,3.7629,3.7595,3.7631,3.763,3.7629,3.7559,3.7557,3.7556,0,0,0,0,0,0,3.7632,3.763,3.7614,3.7623,3.7621,3.763,3.7623,3.7626,3.7622,3.7628,3.763,3.7631,3.7633,3.7631,3.7612,3.7595,3.7629,3.7628,3.756,3.7558,3.7557,3.7526,0,0,0,0,0,0,3.7632,3.763,3.7619,3.7622,3.7621,3.7597,3.7622,3.7625,3.762,3.7623,3.7624,3.7625,3.7633,3.7613,3.7611,3.7594,3.7627,3.7562,3.7559,3.7557,3.7528,3.7523,3.7518,0,0,0,0,0,3.7633,3.7611,3.7619,3.7616,3.7608,3.7596,3.7595,3.7605,3.7619,3.7608,3.7612,3.7625,3.7597,3.7611,3.7608,3.7591,3.7563,3.756,3.7557,3.753,3.7524,3.7519,0,0,0,0,0,0,3.7605,3.7611,3.762,3.7598,3.7596,3.76,3.7587,3.7598,3.7592,3.7595,3.7607,3.7607,3.7586,3.7586,3.7602,3.7562,3.7582,3.7579,3.7563,3.7557,3.7552,3.7552,3.7626,0,0,0,0,0,3.7596,3.7587,3.7592,3.7572,3.7571,3.7579,3.7574,3.7582,3.758,3.758,3.7582,3.7579,3.757,3.7563,3.7555,3.7528,3.7528,3.7515,3.751,3.7506,3.7503,3.7488,3.7481,3.7547,3.7547,3.7547,0,0,3.7578,3.758,3.7573,3.7566,3.7566,3.7555,3.7578,3.7566,3.7557,3.7578,3.756,3.7561,3.7559,3.7535,3.7525,3.7535,3.7485,3.7502,3.7499,3.7498,3.7484,3.7478,3.7472,3.7545,3.7545,3.7546,0,0,3.7539,3.754,3.7523,3.7522,3.7521,3.7526,3.7522,3.7524,3.7526,3.7508,3.7523,3.7512,3.7496,3.7494,3.749,3.7449,3.746,3.7445,3.742,3.7405,3.74,3.7396,3.738,3.7375,3.7442,3.7442,3.7442,0,3.7517,3.7501,3.7513,3.7499,3.7495,3.7513,3.7495,3.7493,3.7489,3.7486,3.7497,3.7476,3.7476,3.7452,3.7442,3.7438,3.7433,3.7446,3.74,3.7396,3.7392,3.7377,3.7371,3.744,3.7441,3.7441,3.7441,0,3.7473,3.7462,3.7448,3.7444,3.7438,3.7422,3.7431,3.7424,3.7432,3.7435,3.7416,3.7416,3.7408,3.7403,3.741,3.7379,3.7385,3.7398,3.7419,3.7383,3.737,3.7364,3.7438,3.7438,3.7439,3.7439,0,0,3.7418,3.7419,3.7414,3.7412,3.7411,3.7403,3.7387,3.7379,3.7372,3.7368,3.7355,3.734,3.7351,3.7347,3.7355,3.7342,3.7308,3.7356,3.7356,3.7347,3.7272,3.7262,3.7256,3.7315,3.7314,3.7313,3.7272,0,3.738,3.7354,3.7363,3.7336,3.7326,3.7342,3.7328,3.7325,3.7328,3.7319,3.7321,3.731,3.7327,3.7324,3.7312,3.7314,3.7293,3.7318,3.7302,3.7302,3.7303,3.7249,3.7239,3.72,3.7267,3.7266,3.7265,0,3.7332,3.7326,3.7299,3.7299,3.7295,3.7282,3.7275,3.7266,3.7263,3.7266,3.726,3.727,3.7254,3.7274,3.7251,3.7267,3.7261,3.7261,3.726,3.7259,3.7282,3.7246,3.7188,3.7182,3.7257,3.7258,3.7259,0,3.7294,3.7279,3.7261,3.7258,3.7258,3.7249,3.7248,3.7246,3.7241,3.7234,3.723,3.7221,3.7216,3.7209,3.7215,3.723,3.7191,3.7212,3.7192,3.7192,3.7184,3.7184,3.7123,3.718,3.718,3.718,3.718,0,3.7251,3.7233,3.7243,3.7232,3.7212,3.7222,3.7202,3.7203,3.7201,3.7189,3.7202,3.719,3.72,3.7189,3.7194,3.7173,3.7171,3.7172,3.7174,3.7171,3.7171,3.7168,3.717,3.7178,3.7179,3.7179,3.7179,0,3.7205,3.7211,3.7192,3.7193,3.7193,3.7178,3.7179,3.7168,3.7171,3.7156,3.7152,3.7157,3.7145,3.7151,3.7137,3.7141,3.7114,3.7119,3.7115,3.7117,3.7097,3.7099,3.7032,3.7023,3.7085,3.7084,3.7084,0,3.7177,3.7164,3.7164,3.7157,3.7155,3.7144,3.7138,3.7147,3.714,3.7135,3.7124,3.7113,3.7104,3.7083,3.7085,3.7074,3.7079,3.7057,3.7078,3.7075,3.7079,3.7079,3.7078,3.7053,3.7052,3.7051,3.7051,0,3.7127,3.713,3.7122,3.7114,3.7106,3.71,3.7095,3.7088,3.7097,3.7088,3.7076,3.7069,3.7055,3.7043,3.7034,3.7032,3.7042,3.7044,3.7039,3.7036,3.7034,3.7035,3.7104,3.7046,3.7046,3.7046,3.7047,3.7047,3.7089,3.7078,3.7076,3.7065,3.7062,3.7057,3.7046,3.7048,3.7038,3.7028,3.7033,3.7018,3.7014,3.7002,3.6999,3.6987,3.6996,3.6988,3.6986,3.6985,3.6982,3.7036,3.6985,3.6985,3.6985,3.6985,3.6986,0,3.704,3.7039,3.7029,3.7021,3.7013,3.7023,3.7018,3.7009,3.6996,3.6992,3.6983,3.6968,3.6956,3.6956,3.6945,3.6935,3.6939,3.6932,3.6933,3.6932,3.6975,3.698,3.6929,3.6929,3.6929,3.6929,3.6929,3.6929,3.7013,3.6994,3.6997,3.6976,3.6975,3.6961,3.6957,3.6951,3.6948,3.693,3.6921,3.6921,3.6918,3.6906,3.6896,3.6896,3.6891,3.6882,3.6884,3.6924,3.6929,3.6935,3.694,3.6881,3.6881,3.6842,3.6842,3.6842]}]]